Torna al catalogo

STARLINK-35918

AttivoComunicazioniVLEO
NORAD 66643·PAYLOAD·🇺🇸 United States

Lanciato Nov 23, 2025 da Vandenberg Space Force Base

Loading…

Prossimi Passaggi (prossime 24 ore)

TLE

AggiornatoSource: CelesTrak SupGP

Epoca: Sep 15, 2026, 03:41 UTC

1 66643C 25271AC  26258.15395833  .00061331  00000+0  18112-2 0  2588
2 66643  53.1599 334.8770 0001281  82.1999 332.0047 15.34374531    17

Traccia STARLINK-35918 in tempo reale con AllMySat

Download on the App Store